TIME,DELAY(SENSOR),PRES,OXYGEN,RAWTEMP,T(OPTODE),TCPHASE,FLUOR,BETA(BETA700),BETA(BETA412),BETA(BETA440),CDOM,C(CSC),ED(ED412.20),ED(ED444.00),ED(ED489.60),ED(ED554.30),LU(LU412.10),LU(LU443.90),LU(LU489.70),LU(LU554.70),COMP,TILTX,TILTY,CHECK
1337483099,5809,910.7299804687500000,33.0501785278320300,565.2681274414062000,4.3225121498107910,56.6489791870117200,55,98,101,78,83,15504,0,0,0,0,2147124361,2147771547,2147569398,2147572333,2009,2,13,57631
1337486695,5810,970.0599975585938000,42.3398208618164060,568.8906860351562000,4.2100257873535160,55.2603187561035160,55,102,102,78,83,15502,0,0,0,0,2147120941,2147783122,2147569682,2147569709,443,2,13,43693
1337490295,5811,982.2800292968750000,44.9172210693359400,572.4487304687500000,4.0994420051574710,54.9287910461425800,55,101,102,78,82,15499,0,0,0,0,2147121462,2147769664,2147570880,2147567862,3551,2,13,44254
1337493895,5808,988.0499877929688000,45.4081306457519500,573.0521240234375000,4.0806751251220700,54.8632507324218750,54,105,101,78,83,15502,0,0,0,0,2147124516,2147769773,2147571574,2147571318,2756,2,13,53061
1337497495,5809,981.8800048828125000,45.2247505187988300,573.4030761718750000,4.0697569847106930,54.8971710205078100,55,101,101,78,85,15492,0,0,0,0,2147125056,2147774656,2147573513,2147569718,729,2,13,36467
1337501095,5810,990.3800048828125000,45.1552810668945300,574.2365722656250000,4.0438308715820310,54.9167900085449200,55,99,102,79,84,15499,0,0,0,0,2147125769,2147771849,2147569490,2147573906,46,2,13,63008
1337504695,5810,990.3499755859375000,45.8715705871582000,575.2238769531250000,4.0131092071533200,54.8219108581543000,55,101,101,79,83,15499,0,0,0,0,2147123684,2147779538,2147569682,2147565577,195,2,13,47508
1337508295,5812,999.0599975585938000,45.9848098754882800,574.8079223632812000,4.0260539054870605,54.8062400817871100,56,100,102,78,84,15497,0,0,0,0,2147122368,2147773760,2147574427,2147569408,3110,2,13,17490
1337511895,5812,995.5200195312500000,45.2633399963378900,574.8131713867188000,4.0258898735046390,54.9078712463378900,56,100,102,80,83,15495,0,0,0,0,2147124050,2147776667,2147572754,2147571876,9,2,13,51663
1337515495,5810,991.9199829101562000,45.6196403503418000,574.7730102539062000,4.0271401405334470,54.8531684875488300,55,101,101,79,83,15496,0,0,0,0,2147124745,2147774454,2147570313,2147571593,3573,2,13,9237
1337519095,5810,994.2100219726562000,45.4873085021972660,575.6934814453125000,3.9984951019287110,54.8866691589355500,55,99,101,78,84,15493,0,0,0,0,2147125531,2147779145,2147571328,2147567817,3240,2,13,37655
1337522695,5808,1001.8900146484375000,46.0801506042480500,575.4525756835938000,4.0059909820556640,54.7982711791992200,54,99,100,79,84,15498,0,0,0,0,2147123291,2147774838,2147569298,2147569252,334,2,13,56956
1337526295,5813,1002.5100097656250000,45.8718605041503900,575.0524291992188000,4.0184478759765625,54.8223991394043000,56,100,101,79,83,15495,0,0,0,0,2147124534,2147773056,2147572900,2147571894,3065,2,13,54829
1337529895,5807,1003.0000000000000000,45.3981094360351560,574.7725830078125000,4.0271511077880860,54.8872795104980500,55,319,101,77,83,15496,0,0,0,0,2147122258,2147774500,2147570166,2147569956,172,2,13,55323
1337533495,5809,1010.2199707031250000,45.1902694702148440,573.8933715820312000,4.0545058250427250,54.9072113037109400,55,101,103,78,83,15491,0,0,0,0,2147121938,2147776045,2147571072,2147572982,135,2,13,63370
1337537095,5810,1008.2000122070312000,44.1497497558593750,573.2540283203125000,4.0743980407714840,55.0504493713378900,54,102,102,79,83,15493,0,0,0,0,2147126802,2147766418,2147574518,2147571721,192,2,13,36218
1337540695,5809,1004.0599975585938000,44.2956504821777340,572.5872192382812000,4.0951371192932130,55.0184898376464840,54,100,101,78,83,15493,0,0,0,0,2147122989,2147771931,2147571556,2147569929,811,2,13,17088
1337544295,5810,1006.2899780273438000,43.9305686950683600,573.8402099609375000,4.0561618804931640,55.0869216918945300,55,101,101,79,84,15495,0,0,0,0,2147125238,2147770395,2147572397,2147573083,3486,2,13,14855
1337547895,5810,1008.8599853515625000,44.3328399658203100,573.0418090820312000,4.0809960365295410,55.0176811218261700,56,101,102,80,83,15493,0,0,0,0,2147128292,2147774171,2147571574,2147572882,211,2,13,21807
1337551495,5810,1005.7100219726562000,43.7362098693847660,573.7797851562500000,4.0580410957336430,55.1071205139160160,55,99,100,79,84,15490,0,0,0,0,2147122861,2147766482,2147567954,2147572626,42,2,13,32783
1337555095,5809,1001.0900268554688000,44.6020889282226560,574.9295043945312000,4.0222702026367190,55.0033493041992200,55,98,102,79,84,15490,0,0,0,0,2147124416,2147769444,2147573796,2147572955,1557,2,13,15917
1337558695,5811,1008.0000000000000000,45.2376518249511700,575.1641845703125000,4.0149650573730470,54.9111595153808600,55,100,101,78,83,15488,0,0,0,0,2147126061,2147774619,2147567707,2147572233,99,2,13,38549
1337562295,5810,1000.2999877929688000,45.3218688964843750,574.8176269531250000,4.0257530212402340,54.8955192565918000,54,102,101,78,85,15488,0,0,0,0,2147123958,2147773302,2147571017,2147573750,153,2,13,29900
1337565895,5810,1000.6500244140625000,45.4252395629882800,575.5817260742188000,4.0019741058349610,54.8959312438964840,55,99,102,79,83,15488,0,0,0,0,2147126601,2147772269,2147570870,2147571885,2997,2,13,60437
1337569495,5810,1011.3900146484375000,45.9633712768554700,575.6386718750000000,4.0001997947692870,54.8201904296875000,55,99,101,78,83,15489,0,0,0,0,2147120786,2147771090,2147574153,2147573174,3475,2,13,64094
1337573095,5809,1004.6199951171875000,45.8506584167480500,575.9503173828125000,3.9905030727386475,54.8339195251464840,55,100,101,78,84,15486,0,0,0,0,2147123721,2147775460,2147570386,2147571629,248,2,13,45880
1337576695,5807,998.4899902343750000,45.0139503479003900,575.9963989257812000,3.9890670776367188,54.9524803161621100,55,101,101,78,84,15485,0,0,0,0,2147127488,2147770660,2147569929,2147572909,184,2,13,36959
1337580295,5808,1010.7399902343750000,45.8920593261718750,576.1425170898438000,3.9845199584960938,54.8333816528320300,56,100,102,78,84,15483,0,0,0,0,2147122541,2147773028,2147565129,2147570249,140,2,13,27156
1337583895,5809,1007.8499755859375000,45.7301483154296900,575.2709960937500000,4.0116438865661620,54.8471298217773440,54,99,100,79,83,15482,0,0,0,0,2147126473,2147768795,2147570797,2147572324,475,2,13,44963
1337587495,5811,1006.6099853515625000,44.7347106933593750,575.2725830078125000,4.0115928649902340,54.9894981384277340,55,99,101,79,83,15483,0,0,0,0,2147122093,2147776365,2147567424,2147573101,3337,2,13,29835
1337591095,5809,1012.3900146484375000,45.3685684204101560,575.2647705078125000,4.0118370056152340,54.8950996398925800,55,100,101,79,83,15481,0,0,0,0,2147126089,2147772324,2147572562,2147571501,325,2,13,63548
1337594695,5810,1008.5100097656250000,44.5367393493652340,574.1829833984375000,4.0454959869384770,55.0034599304199200,55,100,102,79,83,15480,0,0,0,0,2147123776,2147771072,2147570285,2147571428,559,2,13,61598
1337598295,5808,1009.8200073242188000,44.2704010009765600,574.8154296875000000,4.0258197784423830,55.0454292297363300,55,102,101,79,83,15402,0,0,0,0,2147123977,2147772928,2147572836,2147571465,308,2,13,49512
1337601895,5810,1016.4699707031250000,45.1804809570312500,574.3536987304688000,4.0401878356933590,54.9092292785644500,55,101,100,82,83,15400,0,0,0,0,2147125915,2147769005,2147568896,2147571638,3131,2,13,24654
1337605495,5808,1018.5100097656250000,45.0362281799316400,573.6934814453125000,4.0607261657714840,54.9292297363281250,56,103,102,78,84,15400,0,0,0,0,2147124013,2147772772,2147573010,2147570852,3534,2,13,48296
1337609095,5809,1017.5700073242188000,44.6777381896972660,573.4453125000000000,4.0684471130371090,54.9745101928710940,55,100,101,79,84,15398,0,0,0,0,2147126738,2147765577,2147571538,2147570139,101,2,13,21981
1337612695,5810,1022.3400268554688000,43.6499099731445300,572.5311279296875000,4.0968780517578125,55.1056900024414060,55,100,101,79,84,15395,0,0,0,0,2147127515,2147771785,2147570505,2147570505,246,2,13,64175
1337616295,5812,1017.9699707031250000,43.8854789733886700,573.0183715820312000,4.0817217826843260,55.0850410461425800,55,99,102,79,84,15395,0,0,0,0,2147123584,2147777344,2147568502,2147571382,3005,2,13,17793
1337619895,5811,1009.9500122070312000,43.4908714294433600,573.6641235351562000,4.0616421699523930,55.1411705017089840,55,101,103,78,83,15398,0,0,0,0,2147125888,2147776347,2147573833,2147573065,77,2,13,64441
1337623495,5812,1016.4099731445312000,44.7915000915527340,573.9157714843750000,4.0538101196289060,54.9655609130859400,55,101,101,79,84,15459,0,0,0,0,2147121572,2147774436,2147567908,2147574372,344,2,13,65206
1337627095,5810,1006.6599731445312000,44.5699996948242200,574.9268798828125000,4.0223522186279300,55.0079994201660160,55,103,102,77,84,15455,0,0,0,0,2147126701,2147773760,2147571757,2147572827,3562,2,13,19664
1337627756,5808,1003.5100097656250000,44.3506889343261700,575.1859130859375000,4.0142917633056640,55.0404090881347660,55,101,102,79,83,15454,0,0,0,0,2147123190,2147769234,2147570998,2147573056,439,2,13,22428
